Location: Apeadero de Los Molinos-Guadarrama
(40.7091°N, 4.0689°W)
Time: 12:05:30
(UTC+00:00)

OE (NEXTSAT) - Pass Details

Date: 14 May 2021
Orbit: 425 x 432 km, 46.0° (Epoch: 18 June)

Event Time Altitude Azimuth Distance (km) Brightness Sun altitude
Rises 20:54:54 0° 293° (WNW) 2,395 9.5 -14.8°
Reaches altitude 10° 20:57:02 10° 291° (WNW) 1,527 8.2 -15.1°
Maximum altitude 21:00:28 68° 209° (SSW) 466 4.3 -15.6°
Enters shadow 21:01:37 38° 137° (SE) 676 4.7 -15.8°
